Regional Weather Roundup
Issued by NWS Newport/Morehead, NC

Current Version | Previous Version | Graphics & Text | Print | Product List | Glossary Off
Versions: 1 2 3 4 5 6 7 8 9 10 11 12 13 14 15 16 17 18 19 20 21 22 23 24 25 26 27 28 29 30 31 32 33 34 35 36 37 38 39 40 41 42 43 44 45 46 47 48 49 50
000 ASUS42 KMHX 261822 RWRMHX WEATHER ROUNDUP FOR EASTERN NORTH CAROLINA NATIONAL WEATHER SERVICE NEWPORT/MOREHEAD CITY NC 100 PM EST WED NOV 26 2014 NOTE: "FAIR" INDICATES FEW OR NO CLOUDS BELOW 12,000 FEET WITH NO SIGNIFICANT WEATHER AND/OR OBSTRUCTIONS TO VISIBILITY NCZ015>017-031-032-045>047-102-103-261900- NORTH COAST CITY SKY/WX TMP DP RH WIND PRES REMARKS EDENTON RAIN 46 45 95 N15G21 29.76F ELIZABETH CITY RAIN 49 44 83 N21 29.74R KITTY HAWK LGT RAIN 51 50 99 N14G28 29.71R MANTEO LGT RAIN 49 48 97 N15G28 29.72R $$ NCZ045>047-081-094-103-104-261900- CENTRAL COAST CITY SKY/WX TMP DP RH WIND PRES REMARKS FRISCO LGT RAIN 55 55 100 NW14G24 29.68R SWANQUARTER N/A 48 N/A N/A N3G23 29.68S $$ NCZ095-097-098-100-101-261900- SOUTHERN COAST CITY SKY/WX TMP DP RH WIND PRES REMARKS BEAUFORT CLOUDY 50 48 93 N14 29.73F CEDAR ISLAND N/A 50 N/A N/A NW20G29 29.77S JACKSONVILLE LGT RAIN 48 45 89 N13 29.81R PINEY ISLAND NOT AVBL WILMINGTON LGT RAIN 49 46 90 NW14 29.87R $$ NCZ011>013-027>030-043-044-078>080-089-090>093-098-261900- COASTAL PLAIN CITY SKY/WX TMP DP RH WIND PRES REMARKS AHOSKIE RAIN 44 42 93 N18 29.74F CLINTON CLOUDY 48 47 93 NW8 29.90R ELIZABETHTOWN CLOUDY 49 47 91 W14 29.93R GOLDSBORO CLOUDY 46 46 100 N8G16 29.81R GREENVILLE LGT RAIN 45 45 100 N15G26 29.79F HAVELOCK RAIN 49 46 90 NW15 29.80R KENANSVILLE LGT RAIN 47 45 92 NW5 29.88R KINSTON LGT RAIN 46 45 93 N10G21 29.81F NEW BERN LGT RAIN 49 44 83 N13G23 29.78S RICHLANDS CLOUDY 46 43 87 NW7 29.85R ROCKY MOUNT CLOUDY 47 43 86 N14G24 29.81F WASHINGTON CLOUDY 46 44 93 N15G21 29.76F WHITEVILLE CLOUDY 50 46 87 W5 29.94R $$ AMZ130-135-150-152-154-156-158-170-250-252-270-ANZ085-086-088-633-658-670-261900- MARINE OBSERVATIONS STATION/POSITION TIME TEMP WIND PRES WAVE SWELL AIR SEA DIR/SP/G HT/PER HT/PER (UTC) (F) (DEG/KT/KT) (MB) (FT/S) (FT/S) CHESAPEAKE LIGHT 1800 46 360/ 35/ 38 1006.0 64 E VA BEACH 1800 60 66 360/ 21/ 25 1002.4 12/ 8 DUCK 1800 47 58 330/ 25/ 31 1005.3 2 E DUCK 1800 58 N/A 10/ 8 2/11 10 NE DUCK 1800 59 N/A 11/ 8 2/11 OREGON INLET 1800 54 58 330/ 17/ 22 1005.5 13E OREGON INLT 1800 63 N/A 10/ 8 2/11 HATTERAS CG 1800 54 63 330/ 24/ 27 1005.7 DIAMOND BUOY 1800 73 220/ 25/ 31 1003.4 13/ 8 2/16 17 S OCRACOKE NOT AVBL CAPE LOOKOUT 1800 330/ 14/ 18 1007.1 BEAUFORT LAB 1800 49 58 330/ 12/ 20 1006.7 30 SE NEW RIVER 1800 52 67 320/ 19/ 23 1008.9 9/ 8 5 SE WRIGHTSVLE 1800 46 59 320/ 17/ 21 1010.8 225 S CAPE HAT 1659 76 74 200/ 23/ 29 1011.2 9/ 8 41 SE CHARLESTON 1800 58 74 310/ 21/ 25 1013.9 7/ 6 2/10 $$

USA.gov is the U.S. government's official web portal to all federal, state and local government web resources and services.